"Sample Date","Sample Time","Sample Value","Units","Flow Rate","Sample Interval","Number Channels","Micron Size 0","Counts/Channel 0","Micron Size 1","Counts/Channel 1","Micron Size 2","Counts/Channel 2","Micron Size 3","Counts/Channel 3","Micron Size 4","Counts/Channel 4","Micron Size 5","Counts/Channel 5","Micron Size 6","Counts/Channel 6","Micron Size 7","Counts/Channel 7","Micron Size 8","Counts/Channel 8","Micron Size 9","Counts/Channel 9","Micron Size 10","Counts/Channel 10","Micron Size 11","Counts/Channel 11","Micron Size 12","Counts/Channel 12","Micron Size 13","Counts/Channel 13","Micron Size 14","Counts/Channel 14","Micron Size 15","Counts/Channel 15","Micron Size 16","Counts/Channel 16","Micron Size 17","Counts/Channel 17","Micron Size 18","Counts/Channel 18","Micron Size 19","Counts/Channel 19","Micron Size 20","Counts/Channel 20","Micron Size 21","Counts/Channel 21","Micron Size 22","Counts/Channel 22","Micron Size 23","Counts/Channel 23","Micron Size 24","Counts/Channel 24","Micron Size 25","Counts/Channel 25","Micron Size 26","Counts/Channel 26","Micron Size 27","Counts/Channel 27","Micron Size 28","Counts/Channel 28","Micron Size 29","Counts/Channel 29","Micron Size 30","Counts/Channel 30","Micron Size 31","Counts/Channel 31"
"03/08/08","23:00:02",270846.000,"cc",28280.752,6.00,6,0.100,242851.000,0.200,26259.000,0.300,1381.000,0.500,287.000,1.000,68.000,5.000,0
"03/08/08","23:00:08",267793.000,"cc",28269.781,6.00,6,0.100,241358.000,0.200,24717.000,0.300,1366.000,0.500,291.000,1.000,61.000,5.000,0
"03/08/08","23:00:14",269303.000,"cc",28311.922,6.00,6,0.100,231347.000,0.200,35655.000,0.300,1874.000,0.500,368.000,1.000,59.000,5.000,0
"03/08/08","23:00:20",262582.000,"cc",28335.981,6.00,6,0.100,236505.000,0.200,23979.000,0.300,1487.000,0.500,501.000,1.000,110.000,5.000,0
"03/08/08","23:00:26",230110.000,"cc",28286.121,6.00,6,0.100,199014.000,0.200,29066.000,0.300,1543.000,0.500,427.000,1.000,60.000,5.000,0
"03/08/08","23:00:32",296731.000,"cc",28260.576,6.00,6,0.100,266320.000,0.200,28583.000,0.300,1463.000,0.500,316.000,1.000,49.000,5.000,0
"03/08/08","23:00:38",273757.000,"cc",28369.154,6.00,6,0.100,246122.000,0.200,25942.000,0.300,1353.000,0.500,284.000,1.000,56.000,5.000,0
"03/08/08","23:00:44",254690.000,"cc",28348.211,6.00,6,0.100,220795.000,0.200,32062.000,0.300,1530.000,0.500,259.000,1.000,44.000,5.000,0
"03/08/08","23:00:50",335446.000,"cc",28282.266,6.00,6,0.100,299397.000,0.200,34158.000,0.300,1571.000,0.500,279.000,1.000,41.000,5.000,0
"03/08/08","23:00:56",257947.000,"cc",28320.045,6.00,6,0.100,233084.000,0.200,23223.000,0.300,1253.000,0.500,322.000,1.000,65.000,5.000,0
"03/08/08","23:01:02",121958.000,"cc",28366.031,6.00,6,0.100,110733.000,0.200,9969.000,0.300,793.000,0.500,362.000,1.000,101.000,5.000,0
"03/08/08","23:01:08",228459.000,"cc",28365.551,6.00,6,0.100,206678.000,0.200,20392.000,0.300,1107.000,0.500,241.000,1.000,41.000,5.000,0
"03/08/08","23:01:14",302601.000,"cc",28349.072,6.00,6,0.100,271199.000,0.200,29688.000,0.300,1434.000,0.500,236.000,1.000,44.000,5.000,0
"03/08/08","23:01:20",334620.000,"cc",28273.969,6.00,6,0.100,298973.000,0.200,33765.000,0.300,1558.000,0.500,270.000,1.000,54.000,5.000,0
"03/08/08","23:01:26",246197.000,"cc",28366.141,6.00,6,0.100,222376.000,0.200,22540.000,0.300,1053.000,0.500,204.000,1.000,24.000,5.000,0
"03/08/08","23:01:32",273261.000,"cc",28210.398,6.00,6,0.100,244748.000,0.200,26933.000,0.300,1304.000,0.500,233.000,1.000,43.000,5.000,0
"03/08/08","23:01:38",226081.000,"cc",28300.346,6.00,6,0.100,204321.000,0.200,20405.000,0.300,1102.000,0.500,217.000,1.000,36.000,5.000,0
"03/08/08","23:01:44",164617.000,"cc",28378.486,6.00,6,0.100,149075.000,0.200,14453.000,0.300,867.000,0.500,192.000,1.000,30.000,5.000,0
"03/08/08","23:01:50",97843.000,"cc",28333.561,6.00,6,0.100,89051.000,0.200,7650.000,0.300,806.000,0.500,301.000,1.000,35.000,5.000,0
"03/08/08","23:01:56",178136.000,"cc",28316.734,6.00,6,0.100,161742.000,0.200,15158.000,0.300,947.000,0.500,257.000,1.000,32.000,5.000,0
"03/08/08","23:02:02",190788.000,"cc",28276.365,6.00,6,0.100,173311.000,0.200,16259.000,0.300,983.000,0.500,192.000,1.000,43.000,5.000,0
"03/08/08","23:02:08",199975.000,"cc",28256.256,6.00,6,0.100,181492.000,0.200,17320.000,0.300,906.000,0.500,221.000,1.000,36.000,5.000,0
"03/08/08","23:02:14",250201.000,"cc",28363.397,6.00,6,0.100,222710.000,0.200,25304.000,0.300,1704.000,0.500,433.000,1.000,50.000,5.000,0
"03/08/08","23:02:20",268749.000,"cc",28336.025,6.00,6,0.100,166160.000,0.200,96478.000,0.300,5485.000,0.500,536.000,1.000,90.000,5.000,0
"03/08/08","23:02:26",285006.000,"cc",28282.576,6.00,6,0.100,238814.000,0.200,42916.000,0.300,2700.000,0.500,499.000,1.000,77.000,5.000,0
"03/08/08","23:02:32",225501.000,"cc",28347.660,6.00,6,0.100,201460.000,0.200,21628.000,0.300,1759.000,0.500,570.000,1.000,84.000,5.000,0
"03/08/08","23:02:38",223934.000,"cc",28265.219,6.00,6,0.100,192783.000,0.200,28714.000,0.300,1887.000,0.500,482.000,1.000,68.000,5.000,0
"03/08/08","23:02:44",215454.000,"cc",28330.234,6.00,6,0.100,188919.000,0.200,24166.000,0.300,1826.000,0.500,486.000,1.000,57.000,5.000,0
"03/08/08","23:02:50",228129.000,"cc",28317.977,6.00,6,0.100,205140.000,0.200,20918.000,0.300,1597.000,0.500,410.000,1.000,64.000,5.000,0
"03/08/08","23:02:56",137660.000,"cc",28329.148,6.00,6,0.100,125031.000,0.200,11442.000,0.300,927.000,0.500,230.000,1.000,30.000,5.000,0
"03/08/08","23:03:02",202375.000,"cc",28337.006,6.00,6,0.100,182568.000,0.200,18276.000,0.300,1141.000,0.500,340.000,1.000,50.000,5.000,0
"03/08/08","23:03:08",119232.000,"cc",28313.182,6.00,6,0.100,107916.000,0.200,9814.000,0.300,1040.000,0.500,402.000,1.000,60.000,5.000,0
"03/08/08","23:03:14",144135.000,"cc",28306.109,6.00,6,0.100,130310.000,0.200,12150.000,0.300,1153.000,0.500,437.000,1.000,85.000,5.000,0
"03/08/08","23:03:20",126926.000,"cc",28317.615,6.00,6,0.100,114453.000,0.200,10802.000,0.300,1122.000,0.500,476.000,1.000,73.000,5.000,0
"03/08/08","23:03:26",157494.000,"cc",28356.094,6.00,6,0.100,141896.000,0.200,13882.000,0.300,1209.000,0.500,454.000,1.000,53.000,5.000,0
"03/08/08","23:03:32",204673.000,"cc",28279.674,6.00,6,0.100,183896.000,0.200,18988.000,0.300,1355.000,0.500,387.000,1.000,47.000,5.000,0
"03/08/08","23:03:38",253249.000,"cc",28275.729,6.00,6,0.100,227048.000,0.200,24230.000,0.300,1550.000,0.500,381.000,1.000,40.000,5.000,0
"03/08/08","23:03:44",188283.000,"cc",28340.811,6.00,6,0.100,169218.000,0.200,17319.000,0.300,1272.000,0.500,419.000,1.000,55.000,5.000,0
"03/08/08","23:03:50",134816.000,"cc",28307.264,6.00,6,0.100,120658.000,0.200,11882.000,0.300,1530.000,0.500,653.000,1.000,93.000,5.000,0
"03/08/08","23:03:56",170626.000,"cc",28305.316,6.00,6,0.100,153522.000,0.200,15100.000,0.300,1405.000,0.500,525.000,1.000,74.000,5.000,0
"03/08/08","23:04:02",161599.000,"cc",28394.488,6.00,6,0.100,145773.000,0.200,13976.000,0.300,1299.000,0.500,482.000,1.000,69.000,5.000,0
"03/08/08","23:04:08",143540.000,"cc",28382.371,6.00,6,0.100,129852.000,0.200,12056.000,0.300,1084.000,0.500,463.000,1.000,85.000,5.000,0
"03/08/08","23:04:14",114187.000,"cc",28285.543,6.00,6,0.100,103783.000,0.200,9417.000,0.300,676.000,0.500,284.000,1.000,27.000,5.000,0
"03/08/08","23:04:20",115155.000,"cc",28224.354,6.00,6,0.100,104437.000,0.200,9399.000,0.300,890.000,0.500,360.000,1.000,69.000,5.000,0
"03/08/08","23:04:26",130667.000,"cc",28243.920,6.00,6,0.100,118182.000,0.200,10806.000,0.300,1091.000,0.500,503.000,1.000,85.000,5.000,0
"03/08/08","23:04:32",99393.000,"cc",28347.840,6.00,6,0.100,90371.000,0.200,7859.000,0.300,801.000,0.500,312.000,1.000,50.000,5.000,0
"03/08/08","23:04:38",75693.000,"cc",28323.072,6.00,6,0.100,69258.000,0.200,5746.000,0.300,488.000,0.500,174.000,1.000,27.000,5.000,0
"03/08/08","23:04:44",117667.000,"cc",28332.266,6.00,6,0.100,107580.000,0.200,9210.000,0.300,644.000,0.500,207.000,1.000,26.000,5.000,0
"03/08/08","23:04:50",134182.000,"cc",28374.451,6.00,6,0.100,122108.000,0.200,11064.000,0.300,738.000,0.500,235.000,1.000,37.000,5.000,0
"03/08/08","23:04:56",159598.000,"cc",28304.014,6.00,6,0.100,144502.000,0.200,13755.000,0.300,961.000,0.500,333.000,1.000,47.000,5.000,0
"03/08/08","23:05:02",177978.000,"cc",28327.324,6.00,6,0.100,161215.000,0.200,15389.000,0.300,1009.000,0.500,310.000,1.000,55.000,5.000,0
"03/08/08","23:05:08",151070.000,"cc",28318.441,6.00,6,0.100,137671.000,0.200,12398.000,0.300,809.000,0.500,176.000,1.000,16.000,5.000,0
"03/08/08","23:05:14",169416.000,"cc",28335.160,6.00,6,0.100,153796.000,0.200,14573.000,0.300,849.000,0.500,184.000,1.000,14.000,5.000,0
"03/08/08","23:05:20",144585.000,"cc",28263.934,6.00,6,0.100,131502.000,0.200,11927.000,0.300,884.000,0.500,234.000,1.000,38.000,5.000,0
"03/08/08","23:05:26",133290.000,"cc",28308.799,6.00,6,0.100,121437.000,0.200,10933.000,0.300,754.000,0.500,152.000,1.000,14.000,5.000,0
"03/08/08","23:05:32",178204.000,"cc",28347.166,6.00,6,0.100,161771.000,0.200,15358.000,0.300,865.000,0.500,192.000,1.000,18.000,5.000,0
"03/08/08","23:05:38",130507.000,"cc",28300.367,6.00,6,0.100,119052.000,0.200,10617.000,0.300,687.000,0.500,136.000,1.000,15.000,5.000,0
"03/08/08","23:05:44",163376.000,"cc",28304.525,6.00,6,0.100,148552.000,0.200,13875.000,0.300,772.000,0.500,153.000,1.000,24.000,5.000,0
"03/08/08","23:05:50",208364.000,"cc",28275.059,6.00,6,0.100,188646.000,0.200,18548.000,0.300,983.000,0.500,172.000,1.000,15.000,5.000,0
"03/08/08","23:05:56",284113.000,"cc",28363.973,6.00,6,0.100,253488.000,0.200,28728.000,0.300,1558.000,0.500,300.000,1.000,39.000,5.000,0
"03/08/08","23:06:02",208003.000,"cc",28361.440,6.00,6,0.100,187828.000,0.200,18934.000,0.300,1060.000,0.500,153.000,1.000,28.000,5.000,0
"03/08/08","23:06:08",157007.000,"cc",28300.398,6.00,6,0.100,142764.000,0.200,13281.000,0.300,782.000,0.500,154.000,1.000,26.000,5.000,0
"03/08/08","23:06:14",163177.000,"cc",28302.861,6.00,6,0.100,148276.000,0.200,13931.000,0.300,833.000,0.500,122.000,1.000,15.000,5.000,0
"03/08/08","23:06:20",263866.000,"cc",28283.766,6.00,6,0.100,237024.000,0.200,25248.000,0.300,1366.000,0.500,205.000,1.000,23.000,5.000,0
"03/08/08","23:06:26",208557.000,"cc",28271.348,6.00,6,0.100,188338.000,0.200,19062.000,0.300,990.000,0.500,156.000,1.000,11.000,5.000,0
"03/08/08","23:06:32",166754.000,"cc",28384.486,6.00,6,0.100,151386.000,0.200,14425.000,0.300,766.000,0.500,152.000,1.000,25.000,5.000,0
"03/08/08","23:06:38",133139.000,"cc",28317.066,6.00,6,0.100,121326.000,0.200,11041.000,0.300,621.000,0.500,135.000,1.000,16.000,5.000,0
"03/08/08","23:06:44",136942.000,"cc",28304.207,6.00,6,0.100,124560.000,0.200,11527.000,0.300,664.000,0.500,170.000,1.000,21.000,5.000,0
"03/08/08","23:06:50",186546.000,"cc",28281.982,6.00,6,0.100,168378.000,0.200,16795.000,0.300,1085.000,0.500,237.000,1.000,51.000,5.000,0
"03/08/08","23:06:56",168650.000,"cc",28367.772,6.00,6,0.100,152534.000,0.200,14792.000,0.300,994.000,0.500,296.000,1.000,34.000,5.000,0
"03/08/08","23:07:02",184993.000,"cc",28303.668,6.00,6,0.100,166703.000,0.200,16672.000,0.300,1213.000,0.500,351.000,1.000,54.000,5.000,0
"03/08/08","23:07:08",167136.000,"cc",28324.418,6.00,6,0.100,150985.000,0.200,14928.000,0.300,980.000,0.500,214.000,1.000,29.000,5.000,0
"03/08/08","23:07:14",197766.000,"cc",28267.018,6.00,6,0.100,178334.000,0.200,17961.000,0.300,1152.000,0.500,282.000,1.000,37.000,5.000,0
"03/08/08","23:07:20",164459.000,"cc",28282.852,6.00,6,0.100,148950.000,0.200,14352.000,0.300,961.000,0.500,178.000,1.000,18.000,5.000,0
"03/08/08","23:07:26",142932.000,"cc",28304.844,6.00,6,0.100,129959.000,0.200,12118.000,0.300,719.000,0.500,124.000,1.000,12.000,5.000,0
"03/08/08","23:07:32",172630.000,"cc",28409.092,6.00,6,0.100,156463.000,0.200,15167.000,0.300,861.000,0.500,116.000,1.000,23.000,5.000,0
"03/08/08","23:07:38",149666.000,"cc",28302.557,6.00,6,0.100,135620.000,0.200,13001.000,0.300,842.000,0.500,178.000,1.000,25.000,5.000,0
"03/08/08","23:07:44",212032.000,"cc",28330.654,6.00,6,0.100,190614.000,0.200,19993.000,0.300,1177.000,0.500,224.000,1.000,24.000,5.000,0
"03/08/08","23:07:50",177649.000,"cc",28331.346,6.00,6,0.100,160549.000,0.200,15845.000,0.300,996.000,0.500,228.000,1.000,31.000,5.000,0
"03/08/08","23:07:56",246987.000,"cc",28285.756,6.00,6,0.100,220657.000,0.200,24695.000,0.300,1406.000,0.500,208.000,1.000,21.000,5.000,0
"03/08/08","23:08:02",167411.000,"cc",28295.430,6.00,6,0.100,151155.000,0.200,15119.000,0.300,915.000,0.500,183.000,1.000,39.000,5.000,0
"03/08/08","23:08:08",175577.000,"cc",28332.586,6.00,6,0.100,158289.000,0.200,16085.000,0.300,1020.000,0.500,161.000,1.000,22.000,5.000,0
"03/08/08","23:08:14",149962.000,"cc",28304.424,6.00,6,0.100,135965.000,0.200,13090.000,0.300,799.000,0.500,94.000,1.000,14.000,5.000,0
"03/08/08","23:08:20",212077.000,"cc",28342.006,6.00,6,0.100,189266.000,0.200,21338.000,0.300,1294.000,0.500,167.000,1.000,12.000,5.000,0
"03/08/08","23:08:26",172481.000,"cc",28274.332,6.00,6,0.100,154954.000,0.200,16162.000,0.300,1077.000,0.500,248.000,1.000,40.000,5.000,0
"03/08/08","23:08:32",168977.000,"cc",28330.672,6.00,6,0.100,151973.000,0.200,15595.000,0.300,1100.000,0.500,274.000,1.000,35.000,5.000,0
"03/08/08","23:08:38",160694.000,"cc",28329.961,6.00,6,0.100,144526.000,0.200,14839.000,0.300,1053.000,0.500,242.000,1.000,34.000,5.000,0
"03/08/08","23:08:44",200997.000,"cc",28294.393,6.00,6,0.100,179030.000,0.200,20302.000,0.300,1377.000,0.500,255.000,1.000,33.000,5.000,0
"03/08/08","23:08:50",150767.000,"cc",28385.807,6.00,6,0.100,135760.000,0.200,13934.000,0.300,914.000,0.500,145.000,1.000,14.000,5.000,0
"03/08/08","23:08:56",152512.000,"cc",28290.231,6.00,6,0.100,137273.000,0.200,14149.000,0.300,910.000,0.500,156.000,1.000,24.000,5.000,0
"03/08/08","23:09:02",138186.000,"cc",28274.002,6.00,6,0.100,124199.000,0.200,12956.000,0.300,829.000,0.500,174.000,1.000,28.000,5.000,0
"03/08/08","23:09:08",165766.000,"cc",28369.004,6.00,6,0.100,148219.000,0.200,16134.000,0.300,1121.000,0.500,259.000,1.000,33.000,5.000,0
"03/08/08","23:09:14",146398.000,"cc",28352.061,6.00,6,0.100,131131.000,0.200,14130.000,0.300,933.000,0.500,186.000,1.000,18.000,5.000,0
"03/08/08","23:09:20",182935.000,"cc",28317.557,6.00,6,0.100,162531.000,0.200,18868.000,0.300,1284.000,0.500,231.000,1.000,21.000,5.000,0
"03/08/08","23:09:26",185224.000,"cc",28253.836,6.00,6,0.100,164726.000,0.200,18942.000,0.300,1294.000,0.500,238.000,1.000,24.000,5.000,0
"03/08/08","23:09:32",141593.000,"cc",28324.352,6.00,6,0.100,126585.000,0.200,13744.000,0.300,1030.000,0.500,210.000,1.000,24.000,5.000,0
"03/08/08","23:09:38",159080.000,"cc",28310.006,6.00,6,0.100,141861.000,0.200,15863.000,0.300,1118.000,0.500,208.000,1.000,30.000,5.000,0
"03/08/08","23:09:44",134219.000,"cc",28265.709,6.00,6,0.100,120136.000,0.200,12858.000,0.300,992.000,0.500,213.000,1.000,20.000,5.000,0
"03/08/08","23:09:50",127864.000,"cc",28294.207,6.00,6,0.100,114633.000,0.200,12202.000,0.300,857.000,0.500,159.000,1.000,13.000,5.000,0
"03/08/08","23:09:56",135673.000,"cc",28362.301,6.00,6,0.100,121277.000,0.200,13234.000,0.300,979.000,0.500,169.000,1.000,14.000,5.000,0
"03/08/08","23:10:02",135376.000,"cc",28333.096,6.00,6,0.100,121101.000,0.200,13051.000,0.300,984.000,0.500,210.000,1.000,30.000,5.000,0
"03/08/08","23:10:08",131452.000,"cc",28339.254,6.00,6,0.100,116524.000,0.200,13271.000,0.300,1230.000,0.500,380.000,1.000,47.000,5.000,0
"03/08/08","23:10:14",130982.000,"cc",28336.400,6.00,6,0.100,116364.000,0.200,12927.000,0.300,1225.000,0.500,404.000,1.000,62.000,5.000,0
"03/08/08","23:10:20",147028.000,"cc",28291.547,6.00,6,0.100,131135.000,0.200,14711.000,0.300,982.000,0.500,184.000,1.000,16.000,5.000,0
"03/08/08","23:10:26",250935.000,"cc",28340.787,6.00,6,0.100,221182.000,0.200,28063.000,0.300,1524.000,0.500,156.000,1.000,10.000,5.000,0
"03/08/08","23:10:32",216716.000,"cc",28378.389,6.00,6,0.100,191510.000,0.200,23699.000,0.300,1361.000,0.500,133.000,1.000,13.000,5.000,0
"03/08/08","23:10:38",170269.000,"cc",28259.488,6.00,6,0.100,151593.000,0.200,17390.000,0.300,1107.000,0.500,165.000,1.000,14.000,5.000,0
"03/08/08","23:10:44",112621.000,"cc",28305.516,6.00,6,0.100,101226.000,0.200,10496.000,0.300,713.000,0.500,163.000,1.000,23.000,5.000,0
"03/08/08","23:10:50",188879.000,"cc",28353.492,6.00,6,0.100,166508.000,0.200,20936.000,0.300,1221.000,0.500,192.000,1.000,22.000,5.000,0
"03/08/08","23:10:56",250438.000,"cc",28310.514,6.00,6,0.100,219709.000,0.200,28631.000,0.300,1802.000,0.500,283.000,1.000,13.000,5.000,0
"03/08/08","23:11:02",270037.000,"cc",28264.773,6.00,6,0.100,235912.000,0.200,31558.000,0.300,2183.000,0.500,346.000,1.000,38.000,5.000,0
"03/08/08","23:11:08",210621.000,"cc",28347.100,6.00,6,0.100,186221.000,0.200,22742.000,0.300,1425.000,0.500,216.000,1.000,17.000,5.000,0
"03/08/08","23:11:14",254239.000,"cc",28416.475,6.00,6,0.100,223214.000,0.200,28988.000,0.300,1781.000,0.500,236.000,1.000,20.000,5.000,0
"03/08/08","23:11:20",198785.000,"cc",28273.943,6.00,6,0.100,175556.000,0.200,21536.000,0.300,1389.000,0.500,280.000,1.000,24.000,5.000,0
"03/08/08","23:11:26",160792.000,"cc",28287.988,6.00,6,0.100,143299.000,0.200,16226.000,0.300,1063.000,0.500,188.000,1.000,16.000,5.000,0
"03/08/08","23:11:32",158583.000,"cc",28312.662,6.00,6,0.100,140871.000,0.200,16255.000,0.300,1148.000,0.500,278.000,1.000,31.000,5.000,0
"03/08/08","23:11:38",134207.000,"cc",28323.481,6.00,6,0.100,119387.000,0.200,13352.000,0.300,1104.000,0.500,320.000,1.000,44.000,5.000,0
"03/08/08","23:11:44",115101.000,"cc",28302.035,6.00,6,0.100,103109.000,0.200,10987.000,0.300,820.000,0.500,167.000,1.000,18.000,5.000,0
"03/08/08","23:11:50",198399.000,"cc",28344.676,6.00,6,0.100,174796.000,0.200,22090.000,0.300,1296.000,0.500,190.000,1.000,27.000,5.000,0
"03/08/08","23:11:56",221963.000,"cc",28337.260,6.00,6,0.100,196111.000,0.200,24215.000,0.300,1445.000,0.500,182.000,1.000,10.000,5.000,0
"03/08/08","23:12:02",274853.000,"cc",28318.783,6.00,6,0.100,241027.000,0.200,31965.000,0.300,1667.000,0.500,182.000,1.000,12.000,5.000,0
"03/08/08","23:12:08",149920.000,"cc",28285.424,6.00,6,0.100,133560.000,0.200,15360.000,0.300,867.000,0.500,122.000,1.000,11.000,5.000,0
"03/08/08","23:12:14",185177.000,"cc",28357.666,6.00,6,0.100,164306.000,0.200,19295.000,0.300,1234.000,0.500,301.000,1.000,41.000,5.000,0
"03/08/08","23:12:20",184261.000,"cc",28347.369,6.00,6,0.100,163260.000,0.200,19320.000,0.300,1295.000,0.500,341.000,1.000,45.000,5.000,0
"03/08/08","23:12:26",228370.000,"cc",28302.252,6.00,6,0.100,200866.000,0.200,25259.000,0.300,1772.000,0.500,408.000,1.000,65.000,5.000,0
"03/08/08","23:12:32",245205.000,"cc",28261.522,6.00,6,0.100,215906.000,0.200,27225.000,0.300,1742.000,0.500,295.000,1.000,37.000,5.000,0
"03/08/08","23:12:38",165590.000,"cc",28327.398,6.00,6,0.100,147541.000,0.200,16879.000,0.300,1006.000,0.500,139.000,1.000,25.000,5.000,0
"03/08/08","23:12:44",130614.000,"cc",28320.147,6.00,6,0.100,117128.000,0.200,12475.000,0.300,808.000,0.500,183.000,1.000,20.000,5.000,0
"03/08/08","23:12:50",154213.000,"cc",28324.565,6.00,6,0.100,137770.000,0.200,15262.000,0.300,982.000,0.500,176.000,1.000,23.000,5.000,0
"03/08/08","23:12:56",176106.000,"cc",28349.906,6.00,6,0.100,156887.000,0.200,17961.000,0.300,1072.000,0.500,163.000,1.000,23.000,5.000,0
"03/08/08","23:13:02",193499.000,"cc",28301.963,6.00,6,0.100,172265.000,0.200,20088.000,0.300,1034.000,0.500,98.000,1.000,14.000,5.000,0
"03/08/08","23:13:08",239610.000,"cc",28289.197,6.00,6,0.100,212218.000,0.200,26002.000,0.300,1256.000,0.500,127.000,1.000,7.000,5.000,0
"03/08/08","23:13:14",248726.000,"cc",28287.713,6.00,6,0.100,219755.000,0.200,27361.000,0.300,1412.000,0.500,178.000,1.000,20.000,5.000,0
"03/08/08","23:13:20",211218.000,"cc",28293.092,6.00,6,0.100,187727.000,0.200,21917.000,0.300,1305.000,0.500,238.000,1.000,31.000,5.000,0
"03/08/08","23:13:26",178227.000,"cc",28289.068,6.00,6,0.100,158694.000,0.200,17961.000,0.300,1242.000,0.500,292.000,1.000,38.000,5.000,0
"03/08/08","23:13:32",188910.000,"cc",28353.600,6.00,6,0.100,167961.000,0.200,19479.000,0.300,1220.000,0.500,221.000,1.000,29.000,5.000,0
"03/08/08","23:13:38",179031.000,"cc",28339.986,6.00,6,0.100,159232.000,0.200,18407.000,0.300,1171.000,0.500,193.000,1.000,28.000,5.000,0
"03/08/08","23:13:44",165608.000,"cc",28271.150,6.00,6,0.100,147365.000,0.200,16837.000,0.300,1169.000,0.500,223.000,1.000,14.000,5.000,0
"03/08/08","23:13:50",149828.000,"cc",28300.746,6.00,6,0.100,133469.000,0.200,14865.000,0.300,1209.000,0.500,261.000,1.000,24.000,5.000,0
"03/08/08","23:13:56",150245.000,"cc",28312.650,6.00,6,0.100,133689.000,0.200,14939.000,0.300,1244.000,0.500,340.000,1.000,33.000,5.000,0
"03/08/08","23:14:02",126155.000,"cc",28284.791,6.00,6,0.100,112601.000,0.200,12220.000,0.300,994.000,0.500,300.000,1.000,40.000,5.000,0
"03/08/08","23:14:08",97759.000,"cc",28353.934,6.00,6,0.100,87670.000,0.200,8981.000,0.300,789.000,0.500,284.000,1.000,35.000,5.000,0
"03/08/08","23:14:14",109264.000,"cc",28378.568,6.00,6,0.100,97963.000,0.200,10181.000,0.300,814.000,0.500,269.000,1.000,37.000,5.000,0
"03/08/08","23:14:20",119760.000,"cc",28318.104,6.00,6,0.100,106778.000,0.200,11613.000,0.300,936.000,0.500,367.000,1.000,66.000,5.000,0
"03/08/08","23:14:26",95497.000,"cc",28349.043,6.00,6,0.100,85587.000,0.200,8858.000,0.300,765.000,0.500,257.000,1.000,30.000,5.000,0
"03/08/08","23:14:32",105774.000,"cc",28227.705,6.00,6,0.100,94731.000,0.200,9990.000,0.300,812.000,0.500,216.000,1.000,25.000,5.000,0
"03/08/08","23:14:38",76947.000,"cc",28303.475,6.00,6,0.100,69254.000,0.200,6867.000,0.300,662.000,0.500,153.000,1.000,11.000,5.000,0
"03/08/08","23:14:44",103575.000,"cc",28366.725,6.00,6,0.100,92286.000,0.200,10159.000,0.300,905.000,0.500,212.000,1.000,13.000,5.000,0
"03/08/08","23:14:50",77250.000,"cc",28318.277,6.00,6,0.100,69445.000,0.200,6985.000,0.300,644.000,0.500,164.000,1.000,12.000,5.000,0
"03/08/08","23:14:56",97822.000,"cc",28338.543,6.00,6,0.100,87098.000,0.200,9446.000,0.300,986.000,0.500,260.000,1.000,32.000,5.000,0
"03/08/08","23:15:02",92170.000,"cc",28298.035,6.00,6,0.100,82349.000,0.200,8815.000,0.300,756.000,0.500,224.000,1.000,26.000,5.000,0
"03/08/08","23:15:08",80020.000,"cc",28306.176,6.00,6,0.100,71882.000,0.200,7359.000,0.300,602.000,0.500,161.000,1.000,16.000,5.000,0
"03/08/08","23:15:14",112160.000,"cc",28325.732,6.00,6,0.100,100121.000,0.200,11024.000,0.300,779.000,0.500,217.000,1.000,19.000,5.000,0
"03/08/08","23:15:20",158935.000,"cc",28364.715,6.00,6,0.100,141197.000,0.200,16550.000,0.300,966.000,0.500,201.000,1.000,21.000,5.000,0
"03/08/08","23:15:26",137874.000,"cc",28270.688,6.00,6,0.100,122770.000,0.200,14021.000,0.300,889.000,0.500,170.000,1.000,24.000,5.000,0
"03/08/08","23:15:32",154566.000,"cc",28371.766,6.00,6,0.100,136993.000,0.200,15954.000,0.300,1234.000,0.500,329.000,1.000,56.000,5.000,0
"03/08/08","23:15:38",157010.000,"cc",28334.471,6.00,6,0.100,138510.000,0.200,16940.000,0.300,1260.000,0.500,277.000,1.000,23.000,5.000,0
"03/08/08","23:15:44",165434.000,"cc",28308.121,6.00,6,0.100,146545.000,0.200,17529.000,0.300,1153.000,0.500,185.000,1.000,22.000,5.000,0
"03/08/08","23:15:50",182513.000,"cc",28295.869,6.00,6,0.100,161095.000,0.200,19944.000,0.300,1244.000,0.500,201.000,1.000,29.000,5.000,0
"03/08/08","23:15:56",199767.000,"cc",28261.971,6.00,6,0.100,175822.000,0.200,22478.000,0.300,1255.000,0.500,193.000,1.000,19.000,5.000,0
"03/08/08","23:16:02",209565.000,"cc",28264.389,6.00,6,0.100,184413.000,0.200,23599.000,0.300,1354.000,0.500,183.000,1.000,16.000,5.000,0
"03/08/08","23:16:08",153979.000,"cc",28333.988,6.00,6,0.100,136784.000,0.200,16112.000,0.300,913.000,0.500,151.000,1.000,19.000,5.000,0
"03/08/08","23:16:14",162128.000,"cc",28401.195,6.00,6,0.100,143615.000,0.200,17311.000,0.300,1008.000,0.500,177.000,1.000,17.000,5.000,0
"03/08/08","23:16:20",128549.000,"cc",28349.244,6.00,6,0.100,114173.000,0.200,13177.000,0.300,965.000,0.500,215.000,1.000,19.000,5.000,0